Location: Bowman Observatory
(41.0326°N, 73.6210°W)
Time: 07:14:02
(UTC-05:00)

Cosmos 2298 Rocket - Visible Passes

Search period start: 24 February 2018 00:00
Search period end: 06 March 2018 00:00
Orbit: 776 x 784 km, 74.0° (Epoch: 23 February)

Date Brightness Start Highest point End Pass type
(mag) Time Alt. Az. Time Alt. Az. Time Alt. Az.
24 Feb 6.7 02:49:19 15° NE 02:49:19 15° NE 02:50:23 10° NE visible
24 Feb 5.2 04:29:51 29° NNW 04:29:51 29° NNW 04:33:00 10° N visible
25 Feb 5.5 03:57:18 27° N 03:57:18 27° N 03:59:45 10° NNE visible
26 Feb 6.1 03:24:41 21° NNE 03:24:41 21° NNE 03:26:22 10° NNE visible
26 Feb 6.0 05:05:12 12° NW 05:05:12 12° NW 05:06:28 10° NNW visible
27 Feb 6.7 02:52:01 14° NNE 02:52:01 14° NNE 02:52:48 10° NNE visible
27 Feb 6.0 04:32:32 15° NNW 04:32:32 15° NNW 04:34:05 10° NNW visible
28 Feb 6.1 03:59:49 16° NNW 03:59:49 16° NNW 04:01:11 10° N visible
01 Mar 6.3 03:27:04 15° N 03:27:04 15° N 03:28:03 10° N visible
02 Mar 6.7 02:54:16 12° NNE 02:54:16 12° NNE 02:54:44 10° NNE visible
04 Mar 6.6 03:29:08 11° N 03:29:08 11° N 03:29:17 10° N visible
05 Mar 6.8 02:56:16 10° N 02:56:16 10° N 02:56:16 10° N visible
